W7YP Weather Reports


time (UTC)temp
F
wind
direction
speed
knots
gust
knots
rain 1hr
in
rain 24hr
in
rain mn
in
humidity
%
barometer
mb
20260508231329 62 89 0.0 9.6 0.00 0.00 0.00 60 1013.7
20260508230824 64 329 3.5 9.6 0.00 0.00 0.00 56 1013.8
20260508230320 65 315 0.9 8.7 0.00 0.00 0.00 52 1013.7
20260508225814 67 324 0.9 8.7 0.00 0.00 0.00 51 1013.6
20260508225314 67 53 0.0 0.9 0.00 0.00 0.00 54 1013.3
20260508225040 67 53 0.0 2.6 0.00 0.00 0.00 49 1012.9
20260508224310 67 52 0.0 3.5 0.00 0.00 0.00 52 1012.8
20260508223806 68 57 0.0 5.2 0.00 0.00 0.00 49 1012.8
20260508223301 68 309 0.9 5.2 0.00 0.00 0.00 50 1012.8
20260508223025 68 24 0.0 3.5 0.00 0.00 0.00 51 1012.8
20260508222245 67 161 0.0 3.5 0.00 0.00 0.00 50 1012.8
20260508221747 67 115 0.9 3.5 0.00 0.00 0.00 49 1012.8
20260508221246 67 43 0.0 3.5 0.00 0.00 0.00 53 1012.9
20260508220749 67 288 0.0 3.5 0.00 0.00 0.00 51 1012.9
20260508220247 67 100 0.0 6.1 0.00 0.00 0.00 52 1013.0
20260508215746 67 323 0.0 6.1 0.00 0.00 0.00 51 1013.1
20260508215242 67 55 0.0 2.6 0.00 0.00 0.00 52 1013.1
20260508214742 67 100 0.0 6.1 0.00 0.00 0.00 50 1013.3
20260508214241 67 253 1.7 6.1 0.00 0.00 0.00 50 1013.4
20260508213745 67 332 0.0 6.1 0.00 0.00 0.00 52 1013.4
20260508213242 68 148 0.0 5.2 0.00 0.00 0.00 51 1013.4
20260508212732 68 140 1.7 5.2 0.00 0.00 0.00 50 1013.4
20260508212232 68 97 0.0 3.5 0.00 0.00 0.00 50 1013.4
20260508211728 68 110 0.0 2.6 0.00 0.00 0.00 51 1013.4
20260508211227 68 333 0.9 2.6 0.00 0.00 0.00 51 1013.4
20260508210728 68 227 0.9 4.3 0.00 0.00 0.00 50 1013.4
20260508210231 67 182 0.9 4.3 0.00 0.00 0.00 51 1013.3
20260508205720 67 349 0.9 4.3 0.00 0.00 0.00 51 1013.4
20260508205218 67 323 2.6 7.8 0.00 0.00 0.00 50 1013.4
20260508204713 67 5 0.0 7.8 0.00 0.00 0.00 52 1013.5
20260508204213 67 30 1.7 5.2 0.00 0.00 0.00 51 1013.5
20260508203713 67 345 0.9 5.2 0.00 0.00 0.00 51 1013.4
20260508203217 67 270 1.7 6.1 0.00 0.00 0.00 51 1013.4
20260508202714 67 309 1.7 9.6 0.00 0.00 0.00 50 1013.4
20260508202215 68 98 2.6 9.6 0.00 0.00 0.00 50 1013.4
20260508201709 68 207 2.6 6.1 0.00 0.00 0.00 49 1013.5
20260508201209 68 213 0.0 7.0 0.00 0.00 0.00 50 1013.4
20260508200709 68 341 1.7 7.8 0.00 0.00 0.00 51 1013.4
20260508200213 68 173 1.7 7.8 0.00 0.00 0.00 52 1013.5
20260508195712 68 205 0.0 5.2 0.00 0.00 0.00 51 1013.5
20260508195206 68 69 1.7 7.8 0.00 0.00 0.00 50 1013.5
20260508194705 68 271 0.0 7.8 0.00 0.00 0.00 50 1013.5
20260508194201 68 182 3.5 7.8 0.00 0.00 0.00 49 1013.5
20260508193701 69 183 0.0 7.0 0.00 0.00 0.00 49 1013.6
20260508193201 69 273 0.0 5.2 0.00 0.00 0.00 50 1013.6
20260508192659 68 169 0.9 10.4 0.00 0.00 0.00 52 1013.5
20260508192157 68 14 0.9 10.4 0.00 0.00 0.00 52 1013.6
20260508191657 67 271 0.9 7.8 0.00 0.00 0.00 52 1013.6
20260508191157 67 309 2.6 7.8 0.00 0.00 0.00 51 1013.7
20260508190913 67 146 0.9 6.1 0.00 0.00 0.00 51 1013.7
20260508190157 67 352 2.6 8.7 0.00 0.00 0.00 54 1013.8
20260508185652 67 179 3.5 8.7 0.00 0.00 0.00 52 1013.9
20260508185147 67 317 0.9 7.0 0.00 0.00 0.00 52 1013.9
20260508184638 67 352 0.9 7.0 0.00 0.00 0.00 55 1014.0
20260508184137 67 310 0.9 6.1 0.00 0.00 0.00 54 1014.0
20260508184126 66 111 1.7 6.1 0.00 0.00 0.00 52 1014.1
20260508183138 66 150 0.9 7.8 0.00 0.00 0.00 55 1014.3
20260508182638 66 352 0.9 8.7 0.00 0.00 0.00 55 1014.3
20260508182355 66 155 3.5 8.7 0.00 0.00 0.00 55 1014.3
20260508181623 65 319 0.0 6.1 0.00 0.00 0.00 55 1014.3
20260508181121 65 117 1.7 7.8 0.00 0.00 0.00 58 1014.3
20260508180618 65 238 0.9 7.8 0.00 0.00 0.00 57 1014.4
20260508180119 65 318 1.7 6.1 0.00 0.00 0.00 59 1014.4
20260508175620 64 311 1.7 6.1 0.00 0.00 0.00 60 1014.5
20260508175119 64 86 0.0 7.8 0.00 0.00 0.00 59 1014.5
20260508174609 64 198 1.7 9.6 0.00 0.00 0.00 57 1014.6
20260508174109 64 155 2.6 9.6 0.00 0.00 0.00 58 1014.7
20260508173613 64 290 0.9 7.0 0.00 0.00 0.00 59 1014.6
20260508173111 63 36 0.0 4.3 0.00 0.00 0.00 62 1014.7
20260508172610 63 329 0.9 4.3 0.00 0.00 0.00 60 1014.8
20260508172111 63 256 0.9 6.1 0.00 0.00 0.00 61 1014.8
20260508171606 62 223 0.0 6.1 0.00 0.00 0.00 61 1014.8
20260508171056 62 163 0.9 5.2 0.00 0.00 0.00 61 1014.9
20260508170556 61 186 0.0 3.5 0.00 0.00 0.00 66 1015.0
20260508170056 61 155 0.0 2.6 0.00 0.00 0.00 68 1014.9
20260508165556 60 153 0.9 2.6 0.00 0.00 0.00 67 1015.0
20260508165056 60 202 0.0 2.6 0.00 0.00 0.00 68 1015.1
20260508164556 60 99 0.0 3.5 0.00 0.00 0.00 67 1015.0
20260508164047 59 114 0.9 3.5 0.00 0.00 0.00 68 1015.3
20260508163806 59 106 0.0 1.7 0.00 0.00 0.00 72 1015.3
20260508163047 58 109 0.0 1.7 0.00 0.00 0.00 70 1015.4
20260508162547 57 108 0.0 2.6 0.00 0.00 0.00 73 1015.4
20260508162049 57 108 0.9 2.6 0.00 0.00 0.00 74 1015.3
20260508161547 56 83 0.9 2.6 0.00 0.00 0.00 74 1015.4
20260508161042 56 77 0.0 3.5 0.00 0.00 0.00 74 1015.5
20260508160533 56 66 0.0 3.5 0.00 0.00 0.00 76 1015.5
20260508160033 55 182 0.9 3.5 0.00 0.00 0.00 76 1015.5
20260508155533 55 126 0.0 2.6 0.00 0.00 0.00 77 1015.6
20260508155028 54 122 0.0 2.6 0.00 0.00 0.00 79 1015.7
20260508154518 53 118 0.0 2.6 0.00 0.00 0.00 80 1015.7
20260508154244 53 115 0.0 1.7 0.00 0.00 0.00 82 1015.7
20260508153509 52 116 0.0 1.7 0.00 0.00 0.00 85 1015.7
20260508153004 51 116 0.0 1.7 0.00 0.00 0.00 83 1015.8
20260508152459 51 113 0.0 2.6 0.00 0.00 0.00 87 1015.8
20260508151953 50 113 0.9 3.5 0.00 0.00 0.00 87 1015.9
20260508151454 49 107 0.0 3.5 0.00 0.00 0.00 91 1016.0
20260508150954 49 99 0.0 2.6 0.00 0.00 0.00 93 1015.9
20260508150455 48 99 0.0 2.6 0.00 0.00 0.00 95 1015.9
20260508145939 48 329 0.0 0.9 0.00 0.00 0.00 96 1015.9
20260508145434 47 329 0.0 0.0 0.00 0.00 0.00 97 1016.0
20260508145411 47 329 0.0 1.7 0.00 0.00 0.00 97 1016.0
20260508144424 47 329 0.0 1.7 0.00 0.00 0.00 98 1016.0
20260508143924 47 329 0.0 1.7 0.00 0.02 0.00 98 1016.0
20260508143424 47 329 0.0 1.7 0.00 0.04 0.00 98 1016.0
20260508142920 47 325 0.0 0.9 0.00 0.05 0.00 98 1016.0
20260508142414 46 325 0.0 0.9 0.00 0.06 0.00 98 1016.0
20260508141910 46 324 0.0 0.0 0.00 0.06 0.00 98 1016.0
20260508141623 45 324 0.0 0.0 0.00 0.07 0.00 98 1016.0
20260508140900 45 324 0.0 0.0 0.00 0.07 0.00 98 1016.0
20260508140621 44 324 0.0 0.0 0.00 0.08 0.00 97 1016.0
20260508135836 44 324 0.0 0.0 0.00 0.08 0.00 97 1016.0
20260508135338 43 324 0.0 0.0 0.00 0.08 0.00 97 1016.0
20260508134830 43 324 0.0 0.0 0.00 0.08 0.00 97 1016.0
20260508134331 43 324 0.0 0.0 0.00 0.08 0.00 97 1016.0
20260508133831 42 324 0.0 0.0 0.00 0.08 0.00 97 1016.0
20260508133333 42 324 0.0 0.0 0.00 0.08 0.00 97 1016.0
20260508132831 42 324 0.0 0.0 0.00 0.08 0.00 96 1015.9
20260508132327 42 324 0.0 0.0 0.00 0.08 0.00 97 1015.9
20260508131826 42 324 0.0 0.0 0.00 0.08 0.00 96 1015.9
20260508131327 42 324 0.0 0.0 0.00 0.08 0.00 96 1015.9
20260508130827 42 324 0.0 0.0 0.00 0.08 0.00 96 1015.9
20260508130317 41 324 0.0 0.0 0.00 0.08 0.00 96 1015.9
20260508125817 41 324 0.0 0.0 0.00 0.08 0.00 96 1015.8
20260508125312 41 324 0.0 0.0 0.00 0.08 0.00 96 1015.8
20260508124758 41 324 0.0 0.0 0.00 0.08 0.00 96 1015.8
20260508124242 41 324 0.0 0.0 0.00 0.08 0.00 96 1015.8
20260508123745 41 324 0.0 0.0 0.00 0.08 0.00 96 1015.8
20260508123238 41 324 0.0 0.0 0.00 0.08 0.00 96 1015.8
20260508122733 41 324 0.0 0.0 0.00 0.08 0.00 96 1015.8
20260508122233 41 324 0.0 0.0 0.00 0.08 0.00 96 1015.7
20260508121733 41 324 0.0 0.0 0.00 0.08 0.00 96 1015.7
20260508121231 42 324 0.0 0.0 0.00 0.08 0.00 96 1015.7
20260508120719 42 324 0.0 0.0 0.00 0.08 0.00 96 1015.8
20260508120213 42 324 0.0 0.0 0.00 0.08 0.00 96 1015.7
20260508115703 42 324 0.0 0.0 0.00 0.08 0.00 95 1015.7
20260508115159 42 324 0.0 0.0 0.00 0.08 0.00 95 1015.7
20260508114658 42 324 0.0 0.0 0.00 0.08 0.00 96 1015.7
20260508114646 42 324 0.0 0.0 0.00 0.08 0.00 96 1015.6
20260508113659 42 324 0.0 0.0 0.00 0.08 0.00 95 1015.6
20260508113654 42 324 0.0 0.0 0.00 0.08 0.00 95 1015.6
20260508112645 42 324 0.0 0.0 0.00 0.08 0.00 95 1015.6
20260508112413 42 324 0.0 0.0 0.00 0.08 0.00 95 1015.6
20260508111634 42 324 0.0 0.0 0.00 0.08 0.00 95 1015.6
20260508111132 42 324 0.0 0.0 0.00 0.08 0.00 95 1015.5
20260508110630 42 324 0.0 0.0 0.00 0.08 0.00 95 1015.6
20260508110130 42 324 0.0 0.0 0.00 0.08 0.00 95 1015.5
20260508105633 42 324 0.0 0.0 0.00 0.08 0.00 95 1015.6
20260508105125 42 324 0.0 0.0 0.00 0.08 0.00 95 1015.5
20260508104621 42 324 0.0 0.0 0.00 0.08 0.00 95 1015.5
20260508104123 42 324 0.0 0.0 0.00 0.08 0.00 95 1015.5
20260508103844 43 324 0.0 0.0 0.00 0.08 0.00 95 1015.5
20260508103121 43 324 0.0 0.0 0.00 0.08 0.00 95 1015.5
20260508102621 43 324 0.0 0.0 0.00 0.08 0.00 95 1015.5
20260508102121 43 324 0.0 0.0 0.00 0.08 0.00 95 1015.5
20260508101612 43 324 0.0 0.0 0.00 0.08 0.00 95 1015.4
20260508101108 43 324 0.0 0.0 0.00 0.08 0.00 95 1015.4
20260508100557 43 324 0.0 0.0 0.00 0.08 0.00 95 1015.4
20260508100057 43 324 0.0 0.0 0.00 0.08 0.00 95 1015.4
20260508095551 44 324 0.0 0.0 0.00 0.08 0.00 95 1015.4
20260508095052 44 324 0.0 0.0 0.00 0.08 0.00 95 1015.4
20260508094542 44 324 0.0 0.0 0.00 0.08 0.00 95 1015.3
20260508094305 44 324 0.0 0.0 0.00 0.08 0.00 95 1015.3
20260508093537 44 324 0.0 0.0 0.00 0.08 0.00 95 1015.3
20260508093032 44 324 0.0 0.0 0.00 0.08 0.00 95 1015.1
20260508092752 44 324 0.0 0.0 0.00 0.08 0.00 95 1015.1
20260508092033 44 324 0.0 0.0 0.00 0.08 0.00 95 1015.1
20260508092019 44 324 0.0 0.0 0.00 0.08 0.00 95 1015.1
20260508091033 45 324 0.0 0.0 0.00 0.08 0.00 95 1015.0
20260508090524 45 324 0.0 0.0 0.00 0.08 0.00 95 1015.1
20260508090243 45 324 0.0 0.0 0.00 0.08 0.00 95 1015.1
20260508085519 45 324 0.0 0.0 0.00 0.08 0.00 95 1015.1
20260508085019 45 324 0.0 0.0 0.00 0.08 0.00 95 1015.1
20260508084519 45 324 0.0 0.9 0.00 0.08 0.00 95 1015.1
20260508084019 45 324 0.0 0.9 0.00 0.08 0.00 95 1015.3
20260508084001 45 324 0.0 0.9 0.00 0.08 0.00 95 1015.3
20260508083018 45 324 0.0 1.7 0.00 0.09 0.00 95 1015.1
20260508082736 46 323 0.0 1.7 0.00 0.10 0.00 95 1015.1
20260508082010 46 324 0.0 0.0 0.00 0.12 0.00 95 1015.1
20260508081455 46 324 0.0 0.0 0.00 0.14 0.00 95 1015.1
20260508080953 46 324 0.0 0.0 0.00 0.14 0.00 95 1015.0
20260508080709 46 324 0.0 0.0 0.00 0.15 0.00 95 1015.1
20260508075936 46 324 0.0 0.0 0.00 0.16 0.00 95 1015.0
20260508075431 46 324 0.0 0.0 0.00 0.16 0.00 95 1015.0
20260508074931 46 324 0.0 0.0 0.00 0.16 0.00 95 1015.0
20260508074431 46 324 0.0 0.0 0.00 0.18 0.00 95 1015.0
20260508073931 46 324 0.0 0.0 0.00 0.19 0.00 95 1015.0
20260508073644 46 324 0.0 0.0 0.00 0.20 0.00 95 1015.0
20260508072924 46 324 0.0 0.0 0.00 0.20 0.00 95 1014.9
20260508072422 46 324 0.0 0.0 0.00 0.23 0.00 94 1015.0
20260508071916 46 324 0.0 0.0 0.00 0.28 0.00 94 1015.0
20260508071407 46 324 0.0 0.0 0.00 0.35 0.00 94 1015.0
20260508070847 46 324 0.0 0.0 0.00 0.35 0.00 94 1014.9
20260508070337 46 324 0.0 0.0 0.00 0.35 0.00 94 1014.9
20260508065837 46 324 0.0 0.0 0.00 0.35 0.00 94 1014.9
20260508065321 46 324 0.0 0.0 0.00 0.35 0.00 94 1014.9
20260508064819 47 324 0.0 0.0 0.00 0.35 0.00 94 1014.8
20260508064316 47 324 0.0 0.0 0.00 0.35 0.00 94 1014.8
20260508063817 47 324 0.0 0.0 0.00 0.35 0.00 93 1014.9
20260508063312 47 324 0.0 0.0 0.00 0.35 0.00 94 1014.7
20260508062810 47 324 0.0 0.0 0.00 0.35 0.00 93 1014.8
20260508062306 47 324 0.0 0.0 0.00 0.35 0.00 94 1014.9
20260508062246 47 324 0.0 0.0 0.00 0.35 0.00 93 1014.8
20260508061247 47 324 0.0 0.0 0.00 0.35 0.00 93 1014.7
20260508060743 47 324 0.0 0.0 0.00 0.35 0.00 93 1014.7
20260508060244 47 324 0.0 1.7 0.00 0.35 0.00 93 1014.6
20260508055743 47 324 0.0 1.7 0.00 0.35 0.35 93 1014.7
20260508055228 47 324 0.0 1.7 0.00 0.35 0.35 93 1014.7
20260508054728 47 324 0.0 2.6 0.00 0.35 0.35 93 1014.7
20260508054226 47 324 0.9 2.6 0.00 0.35 0.35 93 1014.5
20260508053932 47 329 0.0 0.0 0.00 0.35 0.35 93 1014.6
20260508053643 47 329 0.0 1.7 0.00 0.35 0.35 92 1014.6
20260508052924 48 329 0.9 1.7 0.00 0.35 0.35 92 1014.5
20260508052201 48 329 0.0 0.9 0.00 0.35 0.35 92 1014.5
20260508051646 48 329 0.0 2.6 0.00 0.35 0.35 92 1014.5
20260508051145 48 329 1.7 2.6 0.00 0.35 0.35 92 1014.6
20260508050643 48 329 0.0 2.6 0.00 0.35 0.35 92 1014.5
20260508050144 48 329 0.0 2.6 0.00 0.35 0.35 91 1014.5
20260508045644 49 329 0.0 0.0 0.00 0.35 0.35 91 1014.4
20260508045147 49 329 0.0 0.0 0.00 0.35 0.35 91 1014.1
20260508044629 49 329 0.0 0.0 0.00 0.35 0.35 91 1014.1
20260508044129 49 329 0.0 0.0 0.00 0.35 0.35 91 1014.0
20260508043630 49 329 0.0 0.9 0.00 0.35 0.35 90 1014.0
20260508043349 49 329 0.0 0.9 0.00 0.35 0.35 90 1014.0
20260508042613 50 329 0.0 0.0 0.00 0.36 0.35 90 1014.0
20260508042329 50 329 0.0 0.0 0.00 0.37 0.35 90 1013.9
20260508041609 50 329 0.0 0.0 0.00 0.37 0.35 90 1013.9
20260508041106 50 329 0.0 0.0 0.00 0.37 0.35 90 1013.8
20260508040605 50 329 0.0 0.0 0.00 0.37 0.35 90 1014.0
20260508040106 50 329 0.0 0.0 0.00 0.37 0.35 89 1013.9
20260508035601 51 329 0.0 0.0 0.00 0.37 0.35 89 1013.9
20260508035314 51 329 0.0 0.9 0.00 0.37 0.35 89 1013.9
20260508034550 51 329 0.0 0.9 0.00 0.37 0.35 89 1013.9
20260508034050 51 329 0.0 0.0 0.00 0.37 0.35 88 1013.8
20260508033543 51 329 0.0 0.0 0.00 0.37 0.35 88 1013.8
20260508033041 51 329 0.0 0.0 0.00 0.37 0.35 88 1013.7
20260508032759 51 329 0.0 0.0 0.00 0.37 0.35 87 1013.6
20260508032037 52 329 0.0 0.0 0.00 0.37 0.35 86 1013.6
20260508031536 52 329 0.0 1.7 0.00 0.37 0.35 86 1013.6
20260508031026 52 329 0.0 2.6 0.00 0.37 0.35 85 1013.5
20260508030527 53 329 0.0 2.6 0.00 0.37 0.35 84 1013.4
20260508030011 54 329 0.0 1.7 0.00 0.37 0.35 82 1013.4
20260508025511 54 329 0.0 0.0 0.00 0.37 0.35 81 1013.4
20260508025007 55 329 0.0 0.0 0.00 0.37 0.35 80 1013.4
20260508024502 55 329 0.0 0.0 0.00 0.37 0.35 80 1013.3
20260508023957 56 329 0.0 0.0 0.00 0.37 0.35 79 1013.1
20260508023452 56 329 0.0 0.0 0.00 0.37 0.35 78 1013.1
20260508022952 57 329 0.0 0.0 0.00 0.37 0.35 76 1013.1
20260508022447 58 329 0.0 0.9 0.00 0.37 0.35 74 1013.1
20260508021947 59 329 0.0 0.9 0.00 0.37 0.35 72 1013.0
20260508021929 60 329 0.0 0.0 0.00 0.37 0.35 69 1013.0
20260508020938 61 329 0.0 0.0 0.00 0.37 0.35 68 1013.0
20260508020438 62 329 0.0 0.0 0.00 0.37 0.35 67 1013.0
20260508015938 62 329 0.0 0.9 0.00 0.37 0.35 64 1013.0
20260508015922 63 329 0.0 0.9 0.00 0.37 0.35 64 1012.9
20260508014923 63 329 0.0 0.9 0.00 0.37 0.35 59 1012.9
20260508014426 63 331 0.0 2.6 0.00 0.37 0.35 60 1013.0
20260508013921 63 331 0.0 2.6 0.00 0.37 0.35 58 1013.0
20260508013416 63 163 0.0 2.6 0.00 0.37 0.35 56 1012.8
20260508012911 63 291 0.0 2.6 0.00 0.37 0.35 57 1012.9
20260508012406 63 290 0.0 2.6 0.00 0.37 0.35 57 1012.8
20260508011905 63 277 0.0 2.6 0.00 0.37 0.35 58 1012.8
20260508011405 63 277 0.9 2.6 0.00 0.37 0.35 57 1012.8
20260508010904 63 306 0.0 4.3 0.00 0.37 0.35 59 1012.8
20260508010405 63 307 1.7 4.3 0.00 0.37 0.35 58 1012.9
20260508005855 63 174 0.0 6.1 0.00 0.37 0.35 57 1012.8
20260508005350 64 211 0.9 6.1 0.00 0.37 0.35 56 1012.8
20260508004845 64 205 0.9 8.7 0.00 0.37 0.35 56 1012.9
20260508004348 64 349 1.7 8.7 0.00 0.37 0.35 54 1012.9
20260508003840 65 344 0.9 7.8 0.00 0.37 0.35 54 1012.8
20260508003341 65 5 0.0 7.8 0.00 0.37 0.35 55 1012.9
20260508002840 65 9 0.9 7.8 0.00 0.37 0.35 55 1013.0
20260508002340 65 298 1.7 7.8 0.00 0.37 0.35 56 1013.0
20260508001830 65 281 1.7 7.8 0.00 0.37 0.35 55 1013.0
20260508001325 65 242 0.9 7.0 0.00 0.37 0.35 56 1013.0
20260508000825 66 11 0.9 7.0 0.00 0.37 0.35 56 1013.0
20260508000324 66 313 0.9 8.7 0.00 0.37 0.35 55 1013.1
20260507235820 66 236 1.7 9.6 0.00 0.37 0.35 55 1012.9
20260507235311 66 25 1.7 9.6 0.00 0.37 0.35 53 1013.1
20260507234811 66 352 1.7 7.0 0.00 0.37 0.35 53 1013.1
20260507234312 66 327 1.7 9.6 0.00 0.37 0.35 53 1013.0
20260507233812 66 352 0.9 9.6 0.00 0.37 0.35 52 1013.1
20260507233306 66 237 1.7 5.2 0.00 0.37 0.35 51 1013.0
20260507232801 66 334 0.0 7.0 0.00 0.37 0.35 52 1013.1
20260507232301 66 55 1.7 7.0 0.00 0.37 0.35 51 1013.1
20260507232020 66 352 0.9 8.7 0.00 0.37 0.35 51 1013.3
20260507231528 66 32 3.5 9.6 0.00 0.37 0.35 49 1013.0